THY2260 LTFM-LTFD

Flight info

Callsign THY2260
Flight time 0h 40m
Altitude 24000
Route IVGUS UY226 BIG UN618 KONEN
Aircraft A20N/M-SDE2E3FGHIRWXY/LB1

Departure

Time 2026-04-15 12:11
Airport İstanbul Airport (LTFM)

Arrival

Time 2026-04-15 12:52
Airport Balıkesir Koca Seyit Airport (LTFD)
Time Latitude Longitude Altitude Speed Heading
2026-04-15 11:47 41.25507 28.74891 334 ft 0 kts 269°
2026-04-15 11:58 41.25507 28.74909 329 ft 3 kts 276°
2026-04-15 11:58 41.25503 28.74935 329 ft 3 kts 296°
2026-04-15 11:59 41.25493 28.74956 330 ft 3 kts 325°
2026-04-15 11:59 41.25479 28.74965 329 ft 1 kts 358°
2026-04-15 11:59 41.25476 28.74965 329 ft 1 kts 359°
2026-04-15 12:04 41.25477 28.74965 334 ft 0 kts 359°
2026-04-15 12:04 41.25492 28.74965 350 ft 4 kts 359°
2026-04-15 12:04 41.25534 28.74964 329 ft 8 kts 359°
2026-04-15 12:04 41.25593 28.74962 332 ft 8 kts 359°
2026-04-15 12:05 41.25642 28.74994 329 ft 9 kts 66°
2026-04-15 12:05 41.25647 28.75095 330 ft 13 kts 87°
2026-04-15 12:05 41.25649 28.75226 330 ft 13 kts 89°
2026-04-15 12:05 41.25650 28.75316 332 ft 11 kts 89°
2026-04-15 12:06 41.25651 28.75339 334 ft 3 kts 88°
2026-04-15 12:06 41.25660 28.75387 334 ft 7 kts 53°
2026-04-15 12:06 41.25714 28.75404 330 ft 10 kts 358°
2026-04-15 12:06 41.25791 28.75402 330 ft 13 kts 358°
2026-04-15 12:07 41.25872 28.75400 331 ft 11 kts
2026-04-15 12:07 41.25957 28.75398 331 ft 14 kts 359°
2026-04-15 12:07 41.26062 28.75396 333 ft 16 kts 359°
2026-04-15 12:07 41.26166 28.75393 332 ft 12 kts 358°
2026-04-15 12:08 41.26222 28.75391 333 ft 4 kts
2026-04-15 12:08 41.26249 28.75418 334 ft 6 kts 66°
2026-04-15 12:08 41.26248 28.75468 334 ft 7 kts 91°
2026-04-15 12:08 41.26248 28.75493 334 ft 3 kts 91°
2026-04-15 12:09 41.26249 28.75538 334 ft 7 kts 89°
2026-04-15 12:09 41.26249 28.75579 334 ft 2 kts 89°
2026-04-15 12:09 41.26249 28.75614 334 ft 6 kts 90°
2026-04-15 12:09 41.26249 28.75658 334 ft 3 kts 82°
2026-04-15 12:10 41.26260 28.75666 331 ft 1 kts 13°
2026-04-15 12:10 41.26269 28.75667 334 ft 0 kts
2026-04-15 12:10 41.26320 28.75666 333 ft 30 kts 359°
2026-04-15 12:10 41.26769 28.75652 331 ft 95 kts 358°
2026-04-15 12:11 41.27610 28.75645 334 ft 143 kts 359°
2026-04-15 12:11 41.28624 28.75624 797 ft 146 kts
2026-04-15 12:11 41.29663 28.75587 1414 ft 152 kts
2026-04-15 12:11 41.30707 28.75717 2071 ft 152 kts 20°
2026-04-15 12:12 41.31705 28.76309 2559 ft 164 kts 32°
2026-04-15 12:12 41.32733 28.77137 2956 ft 182 kts 24°
2026-04-15 12:12 41.34058 28.77247 3191 ft 205 kts 356°
2026-04-15 12:12 41.35504 28.77576 3364 ft 226 kts 28°
2026-04-15 12:13 41.36699 28.79027 3619 ft 246 kts 59°
2026-04-15 12:13 41.37204 28.81266 3997 ft 262 kts 90°
2026-04-15 12:13 41.36780 28.83627 4752 ft 267 kts 119°
2026-04-15 12:13 41.35533 28.85465 5635 ft 271 kts 148°
2026-04-15 12:14 41.33761 28.86314 6578 ft 274 kts 176°
2026-04-15 12:14 41.31857 28.86066 7498 ft 278 kts 192°
2026-04-15 12:14 41.29953 28.85683 8443 ft 282 kts 188°
2026-04-15 12:14 41.27984 28.85379 9391 ft 287 kts 188°
2026-04-15 12:15 41.25978 28.85078 10299 ft 294 kts 188°
2026-04-15 12:15 41.23862 28.84741 10754 ft 316 kts 188°
2026-04-15 12:15 41.21592 28.84358 11135 ft 338 kts 188°
2026-04-15 12:15 41.19228 28.83949 11896 ft 344 kts 188°
2026-04-15 12:16 41.16879 28.83539 12788 ft 347 kts 188°
2026-04-15 12:16 41.14476 28.83118 13666 ft 350 kts 188°
2026-04-15 12:16 41.12040 28.82691 14451 ft 354 kts 188°
2026-04-15 12:16 41.09586 28.82221 15180 ft 358 kts 192°
2026-04-15 12:17 41.07211 28.81235 15898 ft 361 kts 205°
2026-04-15 12:17 41.04997 28.79580 16619 ft 365 kts 217°
2026-04-15 12:17 41.02970 28.77529 17372 ft 368 kts 218°
2026-04-15 12:17 41.00949 28.75485 18121 ft 371 kts 218°
2026-04-15 12:18 40.98877 28.73403 18794 ft 375 kts 219°
2026-04-15 12:18 40.96790 28.71316 19491 ft 377 kts 219°
2026-04-15 12:18 40.94683 28.69211 20129 ft 380 kts 219°
2026-04-15 12:18 40.92669 28.66929 20769 ft 380 kts 230°
2026-04-15 12:19 40.91166 28.64069 21427 ft 379 kts 245°
2026-04-15 12:19 40.90302 28.60834 22068 ft 379 kts 259°
2026-04-15 12:19 40.89812 28.57414 22738 ft 381 kts 260°
2026-04-15 12:19 40.89315 28.53945 23388 ft 383 kts 260°
2026-04-15 12:20 40.88814 28.50515 23937 ft 385 kts 260°
2026-04-15 12:20 40.88293 28.46979 24123 ft 385 kts 260°
2026-04-15 12:20 40.87784 28.43545 24177 ft 385 kts 260°
2026-04-15 12:20 40.87267 28.40069 24174 ft 385 kts 260°
2026-04-15 12:21 40.86750 28.36596 24179 ft 385 kts 259°
2026-04-15 12:21 40.86231 28.33119 24174 ft 385 kts 259°
2026-04-15 12:21 40.85712 28.29643 24174 ft 385 kts 259°
2026-04-15 12:21 40.85195 28.26188 24173 ft 384 kts 259°
2026-04-15 12:22 40.84679 28.22744 24176 ft 384 kts 259°
2026-04-15 12:22 40.84157 28.19275 24176 ft 384 kts 259°
2026-04-15 12:22 40.83637 28.15821 24174 ft 384 kts 259°
2026-04-15 12:22 40.83114 28.12351 24180 ft 384 kts 259°
2026-04-15 12:23 40.82589 28.08878 24177 ft 384 kts 259°
2026-04-15 12:23 40.82063 28.05410 24183 ft 384 kts 259°
2026-04-15 12:23 40.81538 28.01953 24175 ft 384 kts 259°
2026-04-15 12:23 40.81017 27.98527 24176 ft 384 kts 259°
2026-04-15 12:24 40.80490 27.95069 24175 ft 384 kts 259°
2026-04-15 12:24 40.79962 27.91611 24173 ft 384 kts 259°
2026-04-15 12:24 40.79542 27.88133 24174 ft 383 kts 265°
2026-04-15 12:24 40.79434 27.84622 24179 ft 383 kts 271°
2026-04-15 12:25 40.79426 27.81096 24172 ft 383 kts 264°
2026-04-15 12:25 40.78853 27.77670 24177 ft 384 kts 251°
2026-04-15 12:25 40.77661 27.74560 24173 ft 388 kts 238°
2026-04-15 12:25 40.75880 27.71871 24186 ft 392 kts 224°
2026-04-15 12:26 40.73617 27.69823 24179 ft 398 kts 212°
2026-04-15 12:26 40.71173 27.68076 24179 ft 399 kts 212°
2026-04-15 12:26 40.69562 27.66921 24173 ft 398 kts 212°
2026-04-15 12:26 40.67127 27.65168 24174 ft 398 kts 212°
2026-04-15 12:27 40.64691 27.63411 24171 ft 398 kts 212°
2026-04-15 12:27 40.62257 27.61655 24174 ft 398 kts 212°
2026-04-15 12:27 40.59832 27.59908 24177 ft 397 kts 212°
2026-04-15 12:27 40.57399 27.58156 24176 ft 399 kts 212°
2026-04-15 12:28 40.54965 27.56387 24172 ft 398 kts 213°
2026-04-15 12:28 40.52560 27.54585 24174 ft 398 kts 213°
2026-04-15 12:28 40.50151 27.52766 24168 ft 398 kts 213°
2026-04-15 12:28 40.47776 27.50976 24171 ft 398 kts 213°
2026-04-15 12:29 40.45367 27.49168 24167 ft 398 kts 213°
2026-04-15 12:29 40.42974 27.47378 24165 ft 398 kts 213°
2026-04-15 12:29 40.40564 27.45580 24164 ft 398 kts 213°
2026-04-15 12:29 40.38151 27.43781 24168 ft 398 kts 213°
2026-04-15 12:30 40.35732 27.41979 24164 ft 398 kts 213°
2026-04-15 12:30 40.33320 27.40185 24160 ft 398 kts 213°
2026-04-15 12:30 40.30916 27.38443 24160 ft 399 kts 210°
2026-04-15 12:30 40.28376 27.37038 24162 ft 403 kts 203°
2026-04-15 12:31 40.25649 27.36051 24160 ft 407 kts 195°
2026-04-15 12:31 40.22844 27.35482 24155 ft 409 kts 192°
2026-04-15 12:31 40.20019 27.34969 23945 ft 409 kts 192°
2026-04-15 12:31 40.17191 27.34444 23304 ft 412 kts 192°
2026-04-15 12:32 40.14363 27.33912 22386 ft 417 kts 192°
2026-04-15 12:32 40.11475 27.33368 21619 ft 417 kts 192°
2026-04-15 12:32 40.08628 27.32835 20986 ft 412 kts 191°
2026-04-15 12:32 40.05787 27.32302 20307 ft 410 kts 191°
2026-04-15 12:33 40.02981 27.31777 19748 ft 405 kts 191°
2026-04-15 12:33 40.00194 27.31255 19137 ft 402 kts 191°
2026-04-15 12:33 39.97455 27.30743 18458 ft 400 kts 191°
2026-04-15 12:33 39.94704 27.30232 17787 ft 396 kts 191°
2026-04-15 12:34 39.91981 27.29728 17104 ft 393 kts 191°
2026-04-15 12:34 39.89282 27.29228 16449 ft 389 kts 191°
2026-04-15 12:34 39.86608 27.28733 15801 ft 386 kts 191°
2026-04-15 12:34 39.84004 27.28176 15013 ft 378 kts 198°
2026-04-15 12:35 39.81634 27.26839 14077 ft 368 kts 216°
2026-04-15 12:35 39.79754 27.24648 13145 ft 359 kts 233°
2026-04-15 12:35 39.78396 27.21967 12245 ft 352 kts 240°
2026-04-15 12:35 39.77125 27.19287 11736 ft 338 kts 240°
2026-04-15 12:36 39.75931 27.16785 11535 ft 317 kts 240°
2026-04-15 12:36 39.74798 27.14427 11355 ft 298 kts 239°
2026-04-15 12:36 39.73737 27.12221 11185 ft 278 kts 239°
2026-04-15 12:36 39.72742 27.10153 11031 ft 261 kts 240°
2026-04-15 12:37 39.71738 27.08234 10659 ft 254 kts 235°
2026-04-15 12:37 39.70697 27.06405 10183 ft 253 kts 235°
2026-04-15 12:37 39.69662 27.04577 9665 ft 251 kts 235°
2026-04-15 12:37 39.68630 27.02758 9293 ft 246 kts 235°
2026-04-15 12:38 39.67641 27.01012 9024 ft 233 kts 235°
2026-04-15 12:38 39.66697 26.99342 8585 ft 230 kts 235°
2026-04-15 12:38 39.65744 26.97657 8084 ft 230 kts 235°
2026-04-15 12:38 39.64800 26.95988 7651 ft 228 kts 234°
2026-04-15 12:39 39.63865 26.94337 7550 ft 232 kts 234°
2026-04-15 12:39 39.62915 26.92662 7529 ft 231 kts 234°
2026-04-15 12:39 39.61962 26.90984 7532 ft 231 kts 234°
2026-04-15 12:39 39.61007 26.89300 7485 ft 231 kts 234°
2026-04-15 12:40 39.60053 26.87618 7436 ft 231 kts 234°
2026-04-15 12:40 39.59102 26.85943 7398 ft 231 kts 234°
2026-04-15 12:40 39.58156 26.84280 7352 ft 231 kts 234°
2026-04-15 12:40 39.57210 26.82617 7303 ft 232 kts 234°
2026-04-15 12:41 39.56252 26.80935 7253 ft 231 kts 234°
2026-04-15 12:41 39.55296 26.79258 7255 ft 231 kts 234°
2026-04-15 12:41 39.54341 26.77581 7263 ft 231 kts 234°
2026-04-15 12:41 39.53389 26.75910 7128 ft 230 kts 233°
2026-04-15 12:42 39.52451 26.74264 6983 ft 221 kts 233°
2026-04-15 12:42 39.51569 26.72716 6899 ft 205 kts 233°
2026-04-15 12:42 39.50750 26.71280 6755 ft 191 kts 233°
2026-04-15 12:42 39.49978 26.69928 6481 ft 188 kts 232°
2026-04-15 12:43 39.49214 26.68592 6272 ft 181 kts 231°
2026-04-15 12:43 39.48250 26.67623 5963 ft 177 kts 196°
2026-04-15 12:43 39.47050 26.67611 5623 ft 174 kts 158°
2026-04-15 12:43 39.46045 26.68442 5329 ft 172 kts 140°
2026-04-15 12:44 39.45085 26.69379 5028 ft 172 kts 141°
2026-04-15 12:44 39.44124 26.70298 4758 ft 172 kts 141°
2026-04-15 12:44 39.43162 26.71211 4480 ft 170 kts 141°
2026-04-15 12:44 39.42214 26.72108 4250 ft 168 kts 141°
2026-04-15 12:45 39.41354 26.73089 4120 ft 165 kts 123°
2026-04-15 12:45 39.40977 26.74449 4041 ft 163 kts 90°
2026-04-15 12:45 39.41202 26.75884 3970 ft 164 kts 67°
2026-04-15 12:45 39.41760 26.77168 3895 ft 164 kts 57°
2026-04-15 12:46 39.42426 26.78373 3822 ft 165 kts 54°
2026-04-15 12:46 39.43108 26.79570 3660 ft 165 kts 54°
2026-04-15 12:46 39.43775 26.80743 3480 ft 162 kts 54°
2026-04-15 12:46 39.44438 26.81919 3294 ft 156 kts 55°
2026-04-15 12:47 39.45050 26.83001 3113 ft 146 kts 55°
2026-04-15 12:47 39.45620 26.84008 2928 ft 132 kts 55°
2026-04-15 12:47 39.46171 26.84983 2765 ft 135 kts 54°
2026-04-15 12:47 39.46719 26.85952 2612 ft 138 kts 54°
2026-04-15 12:48 39.47300 26.86974 2406 ft 142 kts 54°
2026-04-15 12:48 39.47875 26.87991 2210 ft 135 kts 54°
2026-04-15 12:48 39.48416 26.88951 2042 ft 134 kts 54°
2026-04-15 12:48 39.48964 26.89921 1864 ft 132 kts 54°
2026-04-15 12:49 39.49496 26.90861 1690 ft 131 kts 54°
2026-04-15 12:49 39.50040 26.91823 1517 ft 131 kts 54°
2026-04-15 12:49 39.50585 26.92787 1344 ft 131 kts 55°
2026-04-15 12:49 39.51114 26.93724 1173 ft 130 kts 55°
2026-04-15 12:50 39.51646 26.94661 1001 ft 129 kts 55°
2026-04-15 12:50 39.52177 26.95604 818 ft 127 kts 56°
2026-04-15 12:50 39.52705 26.96538 673 ft 129 kts 55°
2026-04-15 12:50 39.53232 26.97468 468 ft 129 kts 54°
2026-04-15 12:51 39.53754 26.98405 324 ft 128 kts 55°
2026-04-15 12:51 39.54284 26.99334 147 ft 127 kts 54°
2026-04-15 12:51 39.54792 27.00237 49 ft 119 kts 54°
2026-04-15 12:51 39.55154 27.00875 47 ft 53 kts 53°
2026-04-15 12:52 39.55340 27.01225 53 ft 29 kts 58°
2026-04-15 12:52 39.55382 27.01280 49 ft 1 kts 334°
2026-04-15 12:52 39.55381 27.01269 52 ft 1 kts 262°
2026-04-15 12:52 39.55368 27.01246 48 ft 6 kts 233°
2026-04-15 12:53 39.55331 27.01181 53 ft 12 kts 236°
2026-04-15 12:53 39.55278 27.01086 53 ft 15 kts 234°
2026-04-15 12:53 39.55219 27.00980 50 ft 14 kts 234°
2026-04-15 12:53 39.55172 27.00944 48 ft 7 kts 169°
2026-04-15 12:54 39.55119 27.00986 48 ft 11 kts 143°
2026-04-15 12:54 39.55051 27.01050 48 ft 12 kts 144°
2026-04-15 12:54 39.55017 27.01080 50 ft 5 kts 144°
2026-04-15 12:54 39.54980 27.01108 50 ft 7 kts 153°
2026-04-15 12:55 39.54961 27.01125 50 ft 2 kts 144°
2026-04-15 12:55 39.54944 27.01141 50 ft 2 kts 144°
2026-04-15 12:55 39.54926 27.01159 50 ft 0 kts 143°
2026-04-15 12:55 39.54925 27.01160 50 ft 0 kts 142°